Change the Weather History Date:

Saturday, March 9, 2013

  Actual Average Record
Temperature  
Mean Temperature 48 °F -  
Max Temperature 61 °F 51 °F 75 °F (1998)
Min Temperature 35 °F 31 °F 17 °F (2005)
Degree Days  
Heating Degree Days 17    
Moisture  
Dew Point 24 °F    
Average Humidity 45    
Maximum Humidity 76    
Minimum Humidity 22    
Precipitation  
Precipitation 0.00 in - - ()
Sea Level Pressure  
Sea Level Pressure 30.31 in    
Wind  
Wind Speed 6 mph (NW)    
Max Wind Speed 9 mph    
Max Gust Speed 16 mph    
Visibility 10 miles    
Events      
Averages and records for this station are not official NWS values.
T = Trace of Precipitation, MM = Missing Value Source: NWS Daily Summary

Daily Weather History Graph

Daily Weather History Graph

Search for Another Location

Airport or City:

Trip Planner

Search our weather history database for the weather conditions in past years. The results will help you decide how hot, cold, wet, or windy it might be!

Date:

Astronomy

Mar. 09, 2013 Rise Set
Actual Time 6:28 AM EST 6:10 PM EST
Civil Twilight 6:02 AM EST 6:36 PM EST
Nautical Twilight 5:31 AM EST 7:07 PM EST
Astronomical Twilight 5:00 AM EST 7:38 PM EST
Moon 4:50 AM EST (3/9) 4:10 PM EST (3/9)
Length of Visible Light 12h 34m
Length of Day
11h 41m
Waning Crescent, 5% of the Moon is Illuminated
Mar 9
Waning Crescent
Mar 11
New
Mar 19
First Quarter
Mar 27
Full
Apr 3
Last Quarter

Hourly Weather History & Observations

Time (EST) Temp. Windchill Dew Point Humidity Pressure Visibility Wind Dir Wind Speed Gust Speed Precip Events Conditions
12:55 AM 41.0 °F 35.8 °F 26.1 °F 55% 30.29 in 10.0 mi NW 8.1 mph - N/A   Clear
1:55 AM 40.3 °F 34.4 °F 25.9 °F 56% 30.30 in 10.0 mi NW 9.2 mph - N/A   Clear
2:55 AM 39.2 °F 34.2 °F 25.3 °F 58% 30.29 in 10.0 mi NW 6.9 mph - N/A   Clear
3:55 AM 38.3 °F 33.2 °F 24.8 °F 58% 30.29 in 10.0 mi NNW 6.9 mph - N/A   Clear
4:55 AM 37.0 °F 31.0 °F 24.4 °F 60% 30.32 in 10.0 mi NW 8.1 mph - N/A   Clear
5:55 AM 36.7 °F 30.5 °F 23.7 °F 59% 30.32 in 10.0 mi NW 8.1 mph - N/A   Clear
6:55 AM 35.8 °F 31.9 °F 23.0 °F 60% 30.34 in 10.0 mi NW 4.6 mph - N/A   Clear
7:55 AM 40.1 °F 34.7 °F 22.8 °F 50% 30.35 in 10.0 mi NNW 8.1 mph - N/A   Clear
8:55 AM 43.5 °F 38.3 °F 22.1 °F 43% 30.36 in 10.0 mi NW 9.2 mph 16.1 mph N/A   Clear
9:55 AM 46.8 °F - 21.9 °F 37% 30.37 in 10.0 mi Variable 6.9 mph - N/A   Clear
10:55 AM 50.4 °F - 22.6 °F 34% 30.35 in 10.0 mi Variable 4.6 mph - N/A   Clear
11:55 AM 54.3 °F - 23.2 °F 30% 30.34 in 10.0 mi WNW 3.5 mph - N/A   Clear
12:55 PM 56.8 °F - 22.1 °F 26% 30.31 in 10.0 mi Variable 4.6 mph - N/A   Clear
1:55 PM 59.2 °F - 21.7 °F 24% 30.28 in 10.0 mi Variable 5.8 mph - N/A   Clear
2:55 PM 61.0 °F - 21.9 °F 22% 30.28 in 10.0 mi Calm Calm - N/A   Clear
3:55 PM 60.6 °F - 20.8 °F 22% 30.27 in 10.0 mi Calm Calm - N/A   Clear
4:55 PM 60.8 °F - 21.0 °F 22% 30.27 in 10.0 mi Variable 4.6 mph - N/A   Clear
5:55 PM 57.0 °F - 22.5 °F 26% 30.27 in 10.0 mi WNW 3.5 mph - N/A   Clear
6:55 PM 50.2 °F - 25.9 °F 39% 30.28 in 10.0 mi Calm Calm - N/A   Clear
7:55 PM 44.4 °F - 25.0 °F 46% 30.29 in 10.0 mi Calm Calm - N/A   Clear
8:55 PM 40.6 °F - 24.3 °F 52% 30.30 in 10.0 mi Calm Calm - N/A   Clear
9:55 PM 37.4 °F - 23.9 °F 58% 30.32 in 10.0 mi Calm Calm - N/A   Clear
10:55 PM 36.1 °F - 29.3 °F 76% 30.32 in 10.0 mi Calm Calm - N/A   Clear
11:55 PM 35.1 °F - 28.2 °F 76% 30.32 in 10.0 mi Calm Calm - N/A   Clear